Location: Clarion
(42.7316°N, 93.7330°W)
Time: 09:39:42
(UTC+00:00)

Cosmos 1943 - Pass Details

Date: 22 April 2026
Orbit: 832 x 847 km, 71.0° (Epoch: 17 May)

Event Time Altitude Azimuth Distance (km) Brightness Sun altitude
Exits shadow 03:27:12 49° 170° (S) 1,085 3.4 -23.2°
Maximum altitude 03:28:37 66° 111° (ESE) 919 3.1 -23.4°
Drops below altitude 10° 03:34:14 10° 30° (NNE) 2,472 5.8 -24.1°
Sets 03:36:42 0° 28° (NNE) 3,410 6.6 -24.4°
